Location: Newark
(45.2500°N, 7.5833°E)
Time: 11:06:42
(UTC+00:00)

Vanguard 3 - Pass Details

Date: 04 February 2020
Orbit: 508 x 3263 km, 33.3° (Epoch: 22 February)

Event Time Altitude Azimuth Distance (km) Brightness Sun altitude
Rises 21:08:46 0° 278° (W) 7,235 12.6 -46.5°
Reaches altitude 10° 21:15:56 10° 264° (W) 6,124 12.0 -47.6°
Maximum altitude 21:26:55 19° 229° (SW) 4,926 11.1 -49.2°
Enters shadow 21:31:57 16° 208° (SSW) 4,800 10.9 -50.0°
Drops below altitude 10° 21:36:07 10° 191° (S) 4,974 - -50.5°
Sets 21:41:04 0° 174° (S) 5,501 - -51.2°
